Flag for India Weather past 2 weeks in Fatehpur, Uttar Pradesh, India

Now
75 °F

Haze.


Feels Like: 78 °F
Forecast: 83 / 102 °F
Wind: No wind

Location: Lucknow / Amausi

Current Time: Apr 22, 2015 at 5:01:18 AM

Latest Report: Apr 22, 2015 at 4:00 AM


Visibility: 2 mi

Pressure: 29.56 "Hg

Humidity: 57%

Dew point: 59 °F

Location of FatehpurLocation

Historic Weather in Fatehpur — Graph

°F

Fatehpur temperature yesterday

Maximum temperature yesterday: 108 °F (at 2:30 PM)
Minimum temperature yesterday: 75 °F (at 5:30 AM)
Average temperature yesterday: 93 °F

Past Weeks' High & Low Weather Summary

 TemperatureHumidityPressure
High108 °F (Apr 21, 2:30 PM)94% (Apr 13, 2:00 AM)30.01 "Hg (Apr 13, 2:00 AM)
Low63 °F (Apr 8, 6:30 AM)17% (Apr 11, 3:30 PM)29.53 "Hg (Apr 18, 3:00 PM)
Average84 °F53%29.80 "Hg
* Reported Apr 7 3:00 AM — Apr 22 3:00 AM, Fatehpur, Weather by CustomWeather, © 2015

Note: Actual official high and low records may vary slightly from our data, if they occured in-between our weather recording intervals... More about our weather records

Advertising

Fatehpur weather history for previous 24 hours

 ConditionsComfort  
Time TempWeatherWind HumidityBarometerVisibility
3:00 AM
Wed, Apr 22
77 °FHaze.No wind54%29.56 "Hg2 mi
2:00 AM79 °FHaze.No wind54%29.59 "Hg2 mi
1:00 AM81 °FHaze.2 mph51%29.62 "Hg2 mi
12:00 AM82 °FHaze.2 mph51%29.62 "Hg2 mi
11:00 PM
Tue, Apr 21
88 °FHaze.2 mph43%29.65 "Hg2 mi
10:00 PM93 °FHaze.2 mph34%29.65 "Hg2 mi
9:00 PM91 °FHaze.2 mph32%29.62 "Hg2 mi
8:30 PM91 °FHaze.3 mph34%29.62 "Hg2 mi
8:00 PM93 °FHaze.3 mph32%29.62 "Hg3 mi
7:30 PM93 °FDuststorm.6 mph34%29.62 "Hg3 mi
7:00 PM95 °FDuststorm.6 mph32%29.59 "Hg3 mi
6:30 PM97 °FDuststorm.7 mph28%29.59 "Hg3 mi
6:00 PM100 °FDuststorm.9 mph25%29.59 "Hg3 mi
5:30 PM104 °FDuststorm.9 mph24%29.59 "Hg3 mi
5:00 PM104 °FDuststorm.12 mph24%29.59 "Hg3 mi
4:30 PM108 °FDuststorm.16 mph22%29.59 "Hg3 mi
4:00 PM108 °FDuststorm.14 mph22%29.59 "Hg3 mi
3:30 PM108 °FDuststorm.12 mph23%29.59 "Hg3 mi
3:00 PM108 °FDuststorm.12 mph26%29.62 "Hg3 mi
2:30 PM108 °FDuststorm.12 mph28%29.65 "Hg3 mi
2:00 PM106 °FDuststorm.12 mph26%29.65 "Hg3 mi
1:30 PM106 °FDuststorm.12 mph30%29.68 "Hg3 mi
12:30 PM104 °FDuststorm.12 mph33%29.71 "Hg3 mi
12:00 PM104 °FDuststorm.9 mph35%29.71 "Hg2 mi
11:30 AM102 °FDuststorm.6 mph40%29.71 "Hg2 mi
11:00 AM99 °FDuststorm.6 mph44%29.74 "Hg2 mi
10:00 AM97 °FDuststorm.2 mph47%29.74 "Hg2 mi
8:30 AM88 °FHaze.2 mph59%29.77 "Hg2 mi
8:00 AM84 °FHaze.2 mph66%29.74 "Hg2 mi
7:30 AM81 °FHaze.2 mph79%29.74 "Hg2 mi
7:00 AM79 °FFog.2 mph79%29.74 "Hg2 mi
6:30 AM77 °FFog.No wind83%29.71 "Hg2 mi
6:00 AM77 °FFog.No wind79%29.71 "Hg2 mi
5:30 AM75 °FFog.No wind89%29.68 "Hg2 mi
Weather by CustomWeather, © 2015

See weather overviewHow to use our weather pages